Flag for Germany Weather past 2 weeks in Leimen, Baden-Württemberg, Germany

Now
75 °F

Sunny.


Feels Like: 78 °F
Forecast: 53 / 76 °F
Wind: 6 mph from Northeast

Location: Baden Wurttemberg - Neuostheim

Current Time: Sep 16, 2014 at 5:56:45 PM

Latest Report: Sep 16, 2014 at 5:20 PM


Visibility: 10 mi

Pressure: 29.95 "Hg

Humidity: 57%

Dew point: 59 °F

Location of LeimenLocation

Historic Weather in Leimen — Graph

°F

Leimen temperature yesterday

Maximum temperature yesterday: 70 °F (at 2:20 PM)
Minimum temperature yesterday: 54 °F (at 5:20 AM)
Average temperature yesterday: 64 °F

Past Weeks' High & Low Weather Summary

 TemperatureHumidityPressure
High82 °F (Sep 6, 5:20 PM)100% (Sep 5, 6:20 AM)30.18 "Hg (Sep 5, 6:20 AM)
Low50 °F (Sep 11, 5:20 AM)37% (Sep 6, 5:20 PM)29.86 "Hg (Sep 6, 4:20 PM)
Average65 °F74%30.04 "Hg
* Reported Sep 1 4:20 PM — Sep 16 4:50 PM, Leimen, Weather by CustomWeather, © 2014

Note: Actual official high and low records may vary slightly from our data, if they occured in-between our weather recording intervals... More about our weather records

Advertising

Leimen weather history for previous 24 hours

 ConditionsComfort  
Time TempWeatherWind HumidityBarometerVisibility
4:50 PM
Sep 16
75 °FPassing clouds.6 mph54%29.95 "HgN/A
4:20 PM75 °FPassing clouds.6 mph50%29.95 "HgN/A
3:50 PM77 °FPassing clouds.6 mph47%29.95 "HgN/A
3:20 PM77 °FPassing clouds.5 mph51%29.95 "HgN/A
2:50 PM75 °FPassing clouds.6 mph54%29.95 "HgN/A
2:20 PM73 °FPassing clouds.3 mph57%29.98 "HgN/A
1:50 PM73 °FPassing clouds.6 mph57%29.98 "HgN/A
1:20 PM72 °FPassing clouds.5 mph61%29.98 "HgN/A
12:50 PM72 °FSunny.3 mph61%29.98 "Hg10 mi
12:20 PM72 °FSunny.2 mph65%29.98 "Hg10 mi
11:50 AM68 °FSunny.2 mph64%30.01 "Hg10 mi
11:20 AM66 °FSunny.2 mph68%30.01 "Hg10 mi
10:50 AM64 °FSunny.2 mph73%30.01 "Hg10 mi
10:20 AM64 °FSunny.2 mph73%30.01 "Hg10 mi
9:50 AM63 °FSunny.1 mph77%30.01 "Hg10 mi
9:20 AM61 °FSunny.1 mph88%30.01 "Hg10 mi
8:50 AM59 °FSunny.2 mph94%30.01 "Hg10 mi
8:20 AM57 °FCool.No wind94%29.98 "HgN/A
7:50 AM55 °FClear.2 mph100%29.98 "Hg10 mi
7:20 AM52 °FClear.2 mph100%29.98 "Hg10 mi
6:50 AM54 °FClear.1 mph94%29.98 "Hg10 mi
6:20 AM54 °FClear.No wind94%29.98 "Hg5 mi
5:20 AM52 °FClear.No wind100%29.98 "Hg5 mi
4:50 AM52 °FClear.1 mph100%29.98 "Hg10 mi
8:50 PM
Sep 15
64 °FClear.1 mph78%29.98 "Hg10 mi
8:20 PM66 °FSunny.3 mph73%29.98 "Hg10 mi
7:50 PM68 °FSunny.1 mph69%29.98 "Hg10 mi
7:20 PM68 °FPartly sunny.3 mph69%29.98 "HgN/A
6:50 PM68 °FPartly sunny.5 mph69%29.98 "HgN/A
6:20 PM70 °FPartly sunny.3 mph64%29.98 "HgN/A
5:50 PM70 °FPartly sunny.6 mph64%29.98 "HgN/A
5:20 PM70 °FPartly sunny.6 mph64%29.98 "HgN/A
Weather by CustomWeather, © 2014

See weather overviewHow to use our weather pages